Radiation Dose at Monitoring Post of Fukushima Daini Nuclear Power Station
Date,Time,MP-1(microSv/h),MP-2(microSv/h),MP-3(microSv/h),MP-4(microSv/h),MP-5(microSv/h),MP-6(microSv/h),MP-7(microSv/h),Wind Direction,Wind Velocity(m/s),Rain
2019/06/05,00:00,0.197,0.182,0.305,0.289,0.275,0.152,0.092,south,6.6,No
2019/06/05,00:10,0.198,0.183,0.305,0.285,0.272,0.152,0.093,south,6.8,No
2019/06/05,00:20,0.197,0.181,0.304,0.287,0.277,0.151,0.093,south,7.3,No
2019/06/05,00:30,0.199,0.182,0.307,0.286,0.274,0.151,0.093,south,6.8,No
2019/06/05,00:40,0.199,0.182,0.305,0.289,0.276,0.152,0.093,south,7.3,No
2019/06/05,00:50,0.198,0.184,0.306,0.288,0.273,0.152,0.093,south,6.8,No
2019/06/05,01:00,0.199,0.181,0.303,0.287,0.276,0.152,0.093,south-southwest,7.0,No
2019/06/05,01:10,0.199,0.182,0.306,0.287,0.274,0.153,0.093,south-southwest,6.0,No
2019/06/05,01:20,0.199,0.182,0.304,0.286,0.275,0.151,0.093,south-southwest,6.2,No
2019/06/05,01:30,0.197,0.184,0.305,0.287,0.276,0.151,0.093,south-southwest,5.6,No
2019/06/05,01:40,0.199,0.182,0.306,0.287,0.274,0.152,0.093,south-southwest,4.4,No
2019/06/05,01:50,0.197,0.182,0.306,0.289,0.278,0.152,0.093,south-southwest,5.4,No
2019/06/05,02:00,0.198,0.181,0.305,0.287,0.274,0.152,0.093,southwest,6.7,No
2019/06/05,02:10,0.198,0.181,0.304,0.288,0.277,0.150,0.093,southwest,7.3,No
2019/06/05,02:20,0.200,0.181,0.307,0.286,0.273,0.152,0.093,south-southwest,6.5,No
2019/06/05,02:30,0.199,0.182,0.302,0.287,0.275,0.150,0.093,southwest,7.1,No
2019/06/05,02:40,0.198,0.182,0.306,0.286,0.275,0.152,0.094,southwest,6.6,No
2019/06/05,02:50,0.198,0.182,0.305,0.287,0.273,0.152,0.093,southwest,6.5,No
2019/06/05,03:00,0.199,0.182,0.304,0.288,0.276,0.151,0.093,southwest,5.9,No
2019/06/05,03:10,0.199,0.182,0.307,0.286,0.272,0.153,0.093,southwest,5.7,No
2019/06/05,03:20,0.197,0.180,0.304,0.288,0.274,0.151,0.093,south-southwest,6.0,No
2019/06/05,03:30,0.200,0.183,0.305,0.286,0.274,0.152,0.093,southwest,5.3,No
2019/06/05,03:40,0.197,0.181,0.304,0.287,0.274,0.151,0.093,southwest,5.2,No
2019/06/05,03:50,0.199,0.182,0.306,0.287,0.277,0.150,0.092,southwest,4.0,No
2019/06/05,04:00,0.199,0.182,0.304,0.288,0.274,0.152,0.093,southwest,4.3,No
2019/06/05,04:10,0.200,0.183,0.305,0.288,0.274,0.150,0.093,southwest,3.7,No
2019/06/05,04:20,0.198,0.181,0.306,0.286,0.273,0.153,0.093,southwest,3.6,No
2019/06/05,04:30,0.198,0.182,0.306,0.288,0.278,0.150,0.093,south-southwest,3.4,No
2019/06/05,04:40,0.199,0.182,0.306,0.286,0.274,0.152,0.093,southwest,4.3,No
2019/06/05,04:50,0.199,0.182,0.305,0.288,0.275,0.151,0.094,southwest,4.8,No
2019/06/05,05:00,0.199,0.182,0.306,0.286,0.276,0.151,0.095,southwest,3.5,No
2019/06/05,05:10,0.198,0.183,0.304,0.289,0.274,0.152,0.093,southwest,4.1,No
2019/06/05,05:20,0.200,0.181,0.305,0.287,0.277,0.152,0.093,southwest,4.9,No
2019/06/05,05:30,0.199,0.181,0.305,0.289,0.274,0.152,0.093,southwest,5.4,No
2019/06/05,05:40,0.201,0.183,0.305,0.286,0.276,0.151,0.093,southwest,6.4,No
2019/06/05,05:50,0.198,0.182,0.304,0.286,0.275,0.151,0.093,southwest,5.3,No
2019/06/05,06:00,0.199,0.181,0.304,0.289,0.271,0.152,0.093,south-southwest,4.3,No
2019/06/05,06:10,0.198,0.183,0.304,0.285,0.275,0.151,0.093,southwest,5.1,No
2019/06/05,06:20,0.198,0.181,0.305,0.289,0.275,0.152,0.094,south-southwest,2.4,No
2019/06/05,06:30,0.198,0.182,0.306,0.286,0.272,0.151,0.093,south-southwest,3.2,No
2019/06/05,06:40,0.197,0.182,0.301,0.284,0.276,0.151,0.093,south-southwest,2.2,No
2019/06/05,06:50,0.201,0.181,0.306,0.289,0.274,0.152,0.093,south-southwest,3.4,No
2019/06/05,07:00,0.197,0.183,0.304,0.287,0.272,0.151,0.094,south-southwest,3.9,No
2019/06/05,07:10,0.199,0.182,0.303,0.286,0.277,0.152,0.093,south-southwest,3.1,No
2019/06/05,07:20,0.199,0.181,0.307,0.289,0.276,0.153,0.094,south,2.3,No
2019/06/05,07:30,0.197,0.182,0.304,0.286,0.273,0.152,0.093,south-southwest,2.6,No
2019/06/05,07:40,0.197,0.182,0.302,0.285,0.274,0.151,0.093,south,2.8,No
2019/06/05,07:50,0.201,0.182,0.306,0.288,0.276,0.151,0.093,south-southwest,3.0,No
2019/06/05,08:00,0.198,0.181,0.305,0.287,0.276,0.152,0.094,south,2.8,No
2019/06/05,08:10,0.198,0.182,0.302,0.286,0.273,0.150,0.094,south,3.1,No
2019/06/05,08:20,0.199,0.182,0.303,0.285,0.271,0.152,0.093,south-southeast,3.5,No
2019/06/05,08:30,0.198,0.182,0.306,0.289,0.275,0.152,0.093,south,4.8,No
2019/06/05,08:40,0.197,0.181,0.304,0.287,0.277,0.152,0.093,south,4.2,No
2019/06/05,08:50,0.197,0.181,0.303,0.285,0.275,0.150,0.093,south,3.8,No
2019/06/05,09:00,0.199,0.182,0.302,0.285,0.272,0.151,0.093,south,4.0,No
2019/06/05,09:10,0.199,0.181,0.306,0.283,0.272,0.151,0.093,south,4.6,No
2019/06/05,09:20,0.198,0.181,0.305,0.288,0.272,0.151,0.092,south,5.2,No
2019/06/05,09:30,0.196,0.181,0.302,0.289,0.273,0.152,0.093,south-southeast,6.0,No
2019/06/05,09:40,0.200,0.181,0.303,0.286,0.277,0.152,0.092,south,5.9,No
2019/06/05,09:50,0.200,0.182,0.307,0.285,0.277,0.152,0.092,south-southeast,5.6,No
2019/06/05,10:00,0.197,0.182,0.306,0.284,0.276,0.151,0.093,south,7.3,No
2019/06/05,10:10,0.197,0.181,0.304,0.284,0.273,0.151,0.093,south-southeast,7.4,No
2019/06/05,10:20,0.197,0.181,0.302,0.289,0.271,0.152,0.093,south-southeast,6.8,No
2019/06/05,10:30,0.200,0.180,0.304,0.287,0.273,0.152,0.092,south,6.0,No
2019/06/05,10:40,0.199,0.181,0.305,0.287,0.271,0.152,0.093,south,6.7,No
2019/06/05,10:50,0.196,0.182,0.306,0.285,0.272,0.152,0.093,south-southeast,7.1,No
2019/06/05,11:00,0.194,0.182,0.303,0.285,0.271,0.152,0.093,south-southeast,7.6,No
2019/06/05,11:10,0.195,0.181,0.301,0.285,0.273,0.150,0.091,south,7.6,No
2019/06/05,11:20,0.198,0.181,0.303,0.288,0.276,0.151,0.093,south,7.8,No
2019/06/05,11:30,0.199,0.180,0.304,0.289,0.277,0.152,0.093,south-southeast,7.8,No
2019/06/05,11:40,0.200,0.181,0.307,0.288,0.276,0.151,0.092,south,8.1,No
2019/06/05,11:50,0.198,0.182,0.306,0.286,0.275,0.152,0.092,south,7.4,No
2019/06/05,12:00,0.197,0.184,0.304,0.285,0.274,0.151,0.092,south,7.9,No
2019/06/05,12:10,0.197,0.181,0.303,0.284,0.274,0.152,0.094,south,8.8,No
2019/06/05,12:20,0.196,0.181,0.302,0.284,0.273,0.151,0.093,south-southeast,9.3,No
2019/06/05,12:30,0.199,0.180,0.302,0.289,0.274,0.152,0.093,south-southeast,9.3,No
2019/06/05,12:40,0.200,0.181,0.303,0.289,0.272,0.152,0.093,south,8.8,No
2019/06/05,12:50,0.199,0.180,0.306,0.288,0.272,0.151,0.093,south,9.8,No
2019/06/05,13:00,0.197,0.180,0.308,0.286,0.273,0.151,0.093,south,9.2,No
2019/06/05,13:10,0.198,0.180,0.305,0.285,0.273,0.151,0.092,south,9.5,No
2019/06/05,13:20,0.198,0.181,0.304,0.284,0.273,0.151,0.093,south-southeast,8.7,No
2019/06/05,13:30,0.197,0.183,0.303,0.286,0.272,0.152,0.093,south,10.1,No
2019/06/05,13:40,0.197,0.182,0.303,0.290,0.272,0.152,0.093,south,9.5,No
2019/06/05,13:50,0.199,0.182,0.301,0.289,0.276,0.150,0.093,south-southeast,9.8,No
2019/06/05,14:00,0.199,0.179,0.302,0.287,0.278,0.152,0.093,south,10.3,No
2019/06/05,14:10,0.198,0.181,0.307,0.284,0.276,0.151,0.093,south-southeast,9.2,No
2019/06/05,14:20,0.197,0.182,0.307,0.285,0.275,0.151,0.093,south-southeast,10.0,No
2019/06/05,14:30,0.196,0.183,0.304,0.289,0.273,0.152,0.093,south,9.2,No
2019/06/05,14:40,0.199,0.182,0.303,0.289,0.273,0.151,0.092,south,10.3,No
2019/06/05,14:50,0.199,0.181,0.303,0.287,0.271,0.151,0.092,south,9.0,No
2019/06/05,15:00,0.199,0.180,0.307,0.287,0.277,0.151,0.093,south-southeast,10.1,No
2019/06/05,15:10,0.198,0.183,0.307,0.290,0.277,0.151,0.092,south-southeast,9.5,No
2019/06/05,15:20,0.196,0.181,0.305,0.290,0.274,0.152,0.092,south-southeast,9.3,No
2019/06/05,15:30,0.200,0.181,0.302,0.286,0.273,0.150,0.093,south,8.8,No
2019/06/05,15:40,0.199,0.182,0.307,0.287,0.274,0.151,0.092,south,8.4,No
2019/06/05,15:50,0.199,0.182,0.306,0.288,0.277,0.152,0.093,south,8.8,No
2019/06/05,16:00,0.198,0.181,0.306,0.288,0.275,0.151,0.094,south,8.4,No
2019/06/05,16:10,0.199,0.180,0.303,0.285,0.272,0.152,0.092,south,9.3,Yes
2019/06/05,16:20,0.200,0.183,0.307,0.288,0.276,0.152,0.092,south,9.3,No
2019/06/05,16:30,0.198,0.182,0.306,0.288,0.277,0.152,0.093,south,9.5,No
2019/06/05,16:40,0.200,0.180,0.303,0.286,0.273,0.151,0.093,south,8.2,No
2019/06/05,16:50,0.199,0.183,0.307,0.289,0.274,0.152,0.092,south,9.2,No
2019/06/05,17:00,0.197,0.181,0.306,0.289,0.276,0.152,0.093,south,8.5,No
2019/06/05,17:10,0.201,0.181,0.304,0.284,0.274,0.150,0.093,south,8.1,No
2019/06/05,17:20,0.199,0.183,0.306,0.288,0.274,0.153,0.092,south,7.8,No
2019/06/05,17:30,0.197,0.181,0.306,0.290,0.276,0.152,0.094,south,7.8,No
2019/06/05,17:40,0.201,0.182,0.302,0.287,0.274,0.151,0.093,south,7.6,No
2019/06/05,17:50,0.199,0.182,0.307,0.289,0.274,0.152,0.092,south,5.6,No
2019/06/05,18:00,0.198,0.181,0.304,0.289,0.278,0.152,0.094,south-southwest,4.3,No
2019/06/05,18:10,0.200,0.182,0.304,0.287,0.273,0.153,0.094,south,5.2,No
2019/06/05,18:20,0.200,0.183,0.308,0.288,0.274,0.152,0.093,south,6.0,Yes
2019/06/05,18:30,0.200,0.184,0.308,0.292,0.279,0.154,0.094,south,4.5,Yes
2019/06/05,18:40,0.202,0.184,0.307,0.289,0.275,0.154,0.096,south-southwest,5.2,Yes
2019/06/05,18:50,0.202,0.184,0.310,0.293,0.279,0.155,0.096,south,3.5,Yes
2019/06/05,19:00,0.201,0.184,0.306,0.291,0.278,0.154,0.094,south-southwest,3.7,No
2019/06/05,19:10,0.200,0.184,0.309,0.291,0.276,0.154,0.094,south-southwest,3.4,No
2019/06/05,19:20,0.200,0.184,0.307,0.292,0.278,0.154,0.094,south-southwest,3.9,Yes
2019/06/05,19:30,0.202,0.184,0.307,0.288,0.276,0.153,0.094,southwest,3.0,Yes
2019/06/05,19:40,0.200,0.182,0.309,0.292,0.277,0.155,0.095,south,3.8,Yes
2019/06/05,19:50,0.201,0.184,0.307,0.289,0.278,0.153,0.094,south-southwest,4.1,Yes
2019/06/05,20:00,0.202,0.184,0.310,0.290,0.275,0.154,0.095,south-southwest,4.6,Yes
2019/06/05,20:10,0.200,0.184,0.307,0.291,0.280,0.154,0.096,south-southwest,4.0,Yes
2019/06/05,20:20,0.202,0.184,0.309,0.288,0.276,0.154,0.095,south-southwest,3.1,No
2019/06/05,20:30,0.200,0.185,0.308,0.292,0.277,0.155,0.095,southwest,4.4,No
2019/06/05,20:40,0.202,0.183,0.308,0.290,0.278,0.153,0.095,southwest,5.1,No
2019/06/05,20:50,0.200,0.184,0.308,0.289,0.275,0.154,0.095,southwest,4.0,No
2019/06/05,21:00,0.200,0.183,0.306,0.291,0.277,0.153,0.095,southwest,4.1,No
2019/06/05,21:10,0.200,0.184,0.308,0.288,0.275,0.154,0.095,west-southwest,3.9,No
2019/06/05,21:20,0.201,0.182,0.307,0.290,0.278,0.153,0.094,west-southwest,4.5,No
2019/06/05,21:30,0.200,0.183,0.307,0.287,0.275,0.154,0.094,west-southwest,5.2,No
2019/06/05,21:40,0.199,0.181,0.304,0.290,0.275,0.154,0.094,west-southwest,5.5,No
2019/06/05,21:50,0.200,0.183,0.308,0.287,0.275,0.152,0.094,west-southwest,3.9,No
2019/06/05,22:00,0.200,0.183,0.304,0.291,0.275,0.153,0.094,southwest,4.9,No
2019/06/05,22:10,0.201,0.183,0.307,0.288,0.277,0.152,0.095,southwest,5.6,No
2019/06/05,22:20,0.199,0.182,0.306,0.290,0.274,0.153,0.095,southwest,5.9,No
2019/06/05,22:30,0.199,0.184,0.307,0.288,0.277,0.153,0.094,southwest,6.3,No
2019/06/05,22:40,0.201,0.182,0.306,0.288,0.273,0.153,0.094,southwest,6.4,No
2019/06/05,22:50,0.199,0.183,0.306,0.288,0.276,0.152,0.093,southwest,5.2,No
2019/06/05,23:00,0.200,0.181,0.306,0.286,0.275,0.152,0.094,southwest,4.1,No
2019/06/05,23:10,0.199,0.183,0.305,0.289,0.274,0.152,0.094,west-southwest,5.1,No
2019/06/05,23:20,0.200,0.180,0.307,0.287,0.276,0.152,0.094,west,5.1,No
2019/06/05,23:30,0.199,0.182,0.304,0.290,0.272,0.153,0.093,west,3.8,No
2019/06/05,23:40,0.201,0.182,0.308,0.288,0.276,0.152,0.093,west-southwest,2.0,No
2019/06/05,23:50,0.198,0.183,0.304,0.288,0.275,0.153,0.093,southwest,1.6,No
